Flag for U.S.A. Weather past 2 weeks in Hialeah, Florida, U.S.A.

Now
78 °F

Sunny.


Feels Like: 81 °F
Forecast: 80 / 90 °F
Wind: 3 mph from Northeast

Location: Opa Locka Airport

Current Time: Aug 1, 2015 at 8:38:58 AM

Latest Report: Aug 1, 2015 at 7:53 AM


Visibility: 10 mi

Pressure: 30.01 "Hg

Humidity: 82%

Dew point: 72 °F

Location of HialeahLocation

Historic Weather in Hialeah — Graph

°F

Hialeah temperature yesterday

Maximum temperature yesterday: 91 °F (at 12:53 PM)
Minimum temperature yesterday: 75 °F (at 6:53 PM)
Average temperature yesterday: 82 °F

Past Weeks' High & Low Weather Summary

 TemperatureHumidityPressure
High94 °F (Jul 28, 1:53 PM)100% (Jul 18, 6:53 AM)30.09 "Hg (Jul 18, 6:53 AM)
Low74 °F (Jul 17, 6:53 AM)44% (Jul 28, 3:53 PM)29.89 "Hg (Jul 26, 4:53 AM)
Average83 °F75%30.01 "Hg
* Reported Jul 17 6:53 AM — Aug 1 6:53 AM, Hialeah, Weather by CustomWeather, © 2015

Note: Actual official high and low records may vary slightly from our data, if they occured in-between our weather recording intervals... More about our weather records

Advertising

Hialeah weather history for previous 24 hours

 ConditionsComfort  
Time TempWeatherWind HumidityBarometerVisibility
6:53 AM
Sat, Aug 1
76 °FClear.No wind91%29.99 "Hg10 mi
5:53 AM77 °FClear.No wind85%30.01 "Hg10 mi
4:53 AM77 °FClear.No wind82%30.01 "Hg10 mi
3:53 AM77 °FClear.No wind82%30.01 "Hg10 mi
2:53 AM77 °FClear.No wind88%30.02 "Hg10 mi
1:53 AM77 °FClear.No wind79%30.04 "Hg10 mi
12:53 AM76 °FClear.No wind85%30.05 "Hg10 mi
11:53 PM
Fri, Jul 31
77 °FClear.3 mph79%30.06 "Hg10 mi
10:53 PM76 °FClear.7 mph85%30.03 "Hg10 mi
9:53 PM76 °FOvercast.8 mph82%30.03 "Hg10 mi
8:53 PM76 °FPassing clouds.7 mph82%30.03 "Hg10 mi
7:53 PM75 °FLight rain. Scattered clouds.13 mph82%30.00 "Hg10 mi
6:53 PM75 °FLight rain. Partly sunny.12 mph82%30.02 "Hg10 mi
5:53 PM80 °FLight rain. Sunny.12 mph67%30.01 "Hg10 mi
4:53 PM81 °FThundershowers. Scattered clouds.7 mph72%30.00 "Hg10 mi
4:01 PM81 °FThundershowers. Broken clouds.No wind60%30.00 "Hg10 mi
2:53 PM79 °FThunderstorms. Broken clouds.16 mph65%30.02 "Hg10 mi
1:53 PM91 °FThunderstorms. Scattered clouds.9 mph60%30.01 "Hg10 mi
12:53 PM91 °FBroken clouds.8 mph57%30.01 "Hg10 mi
11:53 AM90 °FPartly sunny.5 mph59%30.03 "Hg10 mi
10:53 AM90 °FScattered clouds.9 mph61%30.04 "Hg10 mi
9:53 AM87 °FPassing clouds.5 mph69%30.05 "Hg10 mi
8:53 AM85 °FSunny.6 mph72%30.04 "Hg10 mi
Weather by CustomWeather, © 2015

See weather overviewHow to use our weather pages